Regional Weather Roundup
Issued by NWS Mt. Holly, NJ

Home | Current Version | Previous Version | Text Only | Print | Product List | Glossary On
Versions: 1 2 3 4 5 6 7 8 9 10 11 12 13 14 15 16 17 18 19 20 21 22 23 24 25 26 27 28 29 30 31 32 33 34 35 36 37 38 39 40 41 42 43 44 45 46 47 48 49 50
000
ASUS41 KPHI 190911
RWRPHI

REGIONAL WEATHER ROUNDUP
NATIONAL WEATHER SERVICE MOUNT HOLLY NJ
500 AM EDT SUN APR 19 2015

NOTE:  "FAIR" INDICATES FEW OR NO CLOUDS BELOW 12,000 FEET WITH NO
SIGNIFICANT WEATHER AND/OR OBSTRUCTIONS TO VISIBILITY.

 * = STATION DOES NOT REPORT PRECIPITATION (E.G. RAIN, SNOW, ETC.)
        OR FOG.

NJZ015>026-191000-
SOUTHERN NEW JERSEY

CITY           SKY/WX    TMP DP  RH WIND       PRES   REMARKS
POMONA         MOCLDY    55  33  43 NE9       30.11R
MILLVILLE      MOCLDY    55  33  43 NE7       30.10R
WRIGHTSTOWN    PTCLDY    50  30  47 E7        30.10R
MOUNT HOLLY    MOCLDY    56  26  31 NE6       30.12R
TRENTON        PTCLDY    54  24  31 NE10      30.13R

$$
NJZ001>014-191000-
NORTHERN NEW JERSEY

CITY           SKY/WX    TMP DP  RH WIND       PRES   REMARKS
SUSSEX         FAIR      42  27  55 CALM      30.18R
ANDOVER*         N/A     42  34  73 CALM      30.16R
MORRISTOWN     PTCLDY    50  23  34 CALM      30.17R
NEWARK         PTCLDY    51  25  36 NE9       30.17R
TETERBORO      PTCLDY    53  23  31 NE6       30.16R
CALDWELL       PTCLDY    51  22  31 NE3       30.17R
SOMERVILLE     CLEAR     46  27  47 VRB5      30.14R
ALLAIRE*       PTCLDY    55  23  28 NE10      30.15R
TOMS RIVER*    MOCLDY    55  27  33 NE14      30.14R

$$
PAZ043-044-047-054-055-060>062-066>071-191000-
EASTERN PENNSYLVANIA

CITY           SKY/WX    TMP DP  RH WIND       PRES   REMARKS
PHILADELPHIA   MOCLDY    59  25  27 NE9       30.12R
NORTH PHILA    MOCLDY    54  25  32 NE12      30.14R
BLUE BELL      MOCLDY    52  32  46 CALM      30.12S
DOYLESTOWN     PTCLDY    50  25  37 NE6       30.13R
QUAKERTOWN*    PTCLDY    45  32  61 CALM      30.14S
POTTSTOWN      MOCLDY    52  25  35 NE6       30.14S
LANCASTER      MOCLDY    51  29  42 NE5       30.12R
COATESVILLE    MOCLDY    55  27  33 NE3       30.12S
READING        NOT AVBL
ALLENTOWN      PTCLDY    44  27  51 CALM      30.14S
MOUNT POCONO   PTCLDY    41  22  46 NE8       30.14R
HAZLETON       PTCLDY    45  23  42 CALM      30.17S
WILKES BARRE   CLEAR     46  24  42 E5        30.15R

$$
DEZALL-MDZ008-012-015-019-020-191000-
DELAWARE AND EASTERN MARYLAND

CITY           SKY/WX    TMP DP  RH WIND       PRES   REMARKS
WILMINGTON     MOCLDY    58  26  29 NE13      30.11R
DOVER          PTCLDY    55  44  65 NE8       30.06R
GEORGETOWN     PTCLDY    59  37  44 E12G21    30.09R
EASTON         PTCLDY    62  47  59 E10       30.12R
PATUXENT       PTCLDY    57  53  86 SE3       30.05S
OCEAN CITY     PTCLDY    57  48  72 NE10      30.07R
WALLOPS ISLAND PTCLDY    57  56  96 N6        30.05S FOG
SALISBURY      PTCLDY    58  50  75 NE15      30.06R

$$
PAZ001-021-NYZ056-072-MDZ011-DCZ001-191000-
OTHER NEARBY LOCATIONS

CITY           SKY/WX    TMP DP  RH WIND       PRES   REMARKS
HARRISBURG     MOCLDY    57  25  29 E6        30.12R
STATE COLLEGE  MOCLDY    48  26  42 NE9       30.13R
WILLIAMSPORT   PTCLDY    42  30  62 VRB3      30.16R
BINGHAMTON     CLEAR     38  26  62 NE7       30.15S WCI  33
NEW YORK CITY  PTCLDY    55  23  28 NE9       30.19R
BALTIMORE      MOCLDY    60  33  36 NE9       30.08R
WASHINGTON DC  MOCLDY    65  49  56 NE10      30.08R

$$



USA.gov is the U.S. government's official web portal to all federal, state and local government web resources and services.